Sitka, AK

7:12 PM AKDT on August 22, 2017 (GMT -0800)
Sitka Rocky Gutierrez

Weather History for PASI - October, 2012

Change the Weather History Date:

Tuesday, October 2, 2012

  Actual Average Record
Temperature  
Mean Temperature 46 °F -  
Max Temperature 51 °F 83 °F 62 °F (1975)
Min Temperature 43 °F 44 °F 30 °F (1971)
Degree Days  
Heating Degree Days 18    
Moisture  
Dew Point 42 °F    
Average Humidity 85    
Maximum Humidity 97    
Minimum Humidity 63    
Precipitation  
Precipitation 0.00 in - - ()
Sea Level Pressure  
Sea Level Pressure 30.57 in    
Wind  
Wind Speed 3 mph (ESE)    
Max Wind Speed 7 mph    
Max Gust Speed -    
Visibility 10 miles    
Events      
Averages and records for this station are not official NWS values.
T = Trace of Precipitation, MM = Missing Value Source: NWS Daily Summary

Daily Weather History Graph

Daily Weather History Graph

Search for Another Location

Airport or City:

Trip Planner

Search our weather history database for the weather conditions in past years. The results will help you decide how hot, cold, wet, or windy it might be!

Date:

Astronomy

Oct. 02, 2012 Rise Set
Actual Time 7:08 AM AKDT 6:31 PM AKDT
Civil Twilight 6:30 AM AKDT 7:09 PM AKDT
Nautical Twilight 5:45 AM AKDT 7:53 PM AKDT
Astronomical Twilight 4:59 AM AKDT 8:39 PM AKDT
Moon 7:04 PM AKDT (10/2) 10:24 AM AKDT (10/2)
Length of Visible Light 12h 38m
Length of Day
11h 22m
Waning Gibbous, 93% of the Moon is Illuminated
Oct 2
Waning Gibbous
Oct 7
Last Quarter
Oct 15
New
Oct 21
First Quarter
Oct 29
Full

Hourly Weather History & Observations

Time (AKDT) Temp. Windchill Dew Point Humidity Pressure Visibility Wind Dir Wind Speed Gust Speed Precip Events Conditions
12:53 AM 44.1 °F 40.8 °F 42.1 °F 93% 30.51 in 10.0 mi East 5.8 mph - N/A   Mostly Cloudy
1:53 AM 44.1 °F 42.5 °F 42.1 °F 93% 30.53 in 10.0 mi NE 3.5 mph - N/A   Overcast
2:53 AM 44.1 °F - 43.0 °F 96% 30.54 in 10.0 mi Calm Calm - 0.00 in   Overcast
3:53 AM 44.1 °F - 43.0 °F 96% 30.56 in 10.0 mi Calm Calm - N/A   Overcast
4:53 AM 44.1 °F - 43.0 °F 96% 30.57 in 10.0 mi Calm Calm - N/A   Overcast
5:53 AM 44.1 °F - 43.0 °F 96% 30.58 in 10.0 mi Calm Calm - N/A   Overcast
6:53 AM 43.0 °F 41.3 °F 42.1 °F 97% 30.59 in 10.0 mi East 3.5 mph - N/A   Mostly Cloudy
7:53 AM 43.0 °F 41.3 °F 42.1 °F 97% 30.59 in 10.0 mi ENE 3.5 mph - N/A   Mostly Cloudy
8:53 AM 46.0 °F - 44.1 °F 93% 30.60 in 10.0 mi Calm Calm - N/A   Mostly Cloudy
9:53 AM 46.9 °F - 42.1 °F 83% 30.60 in 10.0 mi Calm Calm - N/A   Overcast
10:53 AM 48.0 °F - 41.0 °F 77% 30.58 in 10.0 mi Calm Calm - N/A   Overcast
11:53 AM 48.9 °F - 42.1 °F 77% 30.61 in 10.0 mi WNW 4.6 mph - N/A   Overcast
12:53 PM 48.9 °F - 44.1 °F 83% 30.59 in 10.0 mi Calm Calm - N/A   Overcast
1:53 PM 50.0 °F - 42.1 °F 74% 30.59 in 10.0 mi SW 3.5 mph - N/A   Overcast
2:53 PM 50.0 °F - 39.9 °F 68% 30.59 in 10.0 mi WSW 5.8 mph - N/A   Overcast
3:53 PM 50.0 °F - 37.9 °F 63% 30.59 in 10.0 mi Calm Calm - N/A   Overcast
4:53 PM 50.0 °F - 41.0 °F 71% 30.58 in 10.0 mi Calm Calm - N/A   Overcast
5:53 PM 50.0 °F - 41.0 °F 71% 30.56 in 10.0 mi SSW 3.5 mph - N/A   Mostly Cloudy
6:53 PM 48.0 °F - 43.0 °F 83% 30.56 in 10.0 mi ENE 3.5 mph - N/A   Mostly Cloudy
7:53 PM 46.9 °F - 43.0 °F 86% 30.55 in 10.0 mi Calm Calm - N/A   Mostly Cloudy
8:53 PM 46.0 °F 43.9 °F 43.0 °F 89% 30.54 in 10.0 mi East 4.6 mph - N/A   Overcast
9:53 PM 45.0 °F 41.8 °F 43.0 °F 93% 30.53 in 10.0 mi East 5.8 mph - N/A   Overcast
10:53 PM 46.9 °F - 43.0 °F 86% 30.52 in 10.0 mi SE 6.9 mph - N/A   Overcast
11:53 PM 46.0 °F 43.9 °F 42.1 °F 86% 30.51 in 10.0 mi ESE 4.6 mph - 0.00 in   Overcast